{"data":{"norad_id":57633,"epoch":"2026-09-20T05:00:27.469728Z","epoch_age_seconds":153031,"freshness":"FRESH","line1":"1 57633U 23122B   26263.20865127  .00000211  00000+0  17205-4 0  9996","line2":"2 57633  43.0055  74.1721 0002428 258.3806 101.6773 15.27574862171958","mean_motion":15.27574862,"eccentricity":0.0002428,"inclination_deg":43.0055,"raan_deg":74.1721,"arg_perigee_deg":258.3806,"mean_anomaly_deg":101.6773,"bstar":1.7205e-5,"rev_number":17195,"period_min":94.267065779981,"perigee_km":481.39858138355,"apogee_km":484.73038082278,"semimajor_km":6861.2014811032,"source":"CELESTRAK","updated_at":"2026-09-21T09:00:33.664995Z"}}